Wind_Speed
65 62 60 58 56 55 53 51 50 47 44 40 37 34 31 28 25 21 16 13 12 10 13 10 9 8 7 6 9 9 10 10 10 7 6 5 5 3 4 6 6 6 9
64 65 62 61 59 57 54 52 51 49 46 43 41 38 35 31 26 23 19 16 13 12 15 12 9 9 8 7 9 9 11 8 5 4 5 4 3 2 3 2 3 6 7
63 67 64 61 60 58 56 52 51 50 48 45 43 40 36 33 28 25 22 18 17 15 16 14 11 11 9 8 9 10 9 3 2 1 3 2 3 2 3 2 3 4 6
61 65 64 62 61 60 58 55 53 51 50 47 46 42 39 35 30 28 25 20 20 19 18 15 12 12 10 9 8 10 8 4 1 3 5 4 2 5 5 3 1 2 5
63 63 63 62 63 62 60 57 56 53 51 49 48 45 42 38 33 30 27 23 23 21 21 17 14 14 12 10 9 10 10 6 5 6 6 5 5 6 5 4 2 2 3
65 62 64 64 64 63 61 59 57 55 53 51 49 46 43 38 35 33 30 27 25 23 22 21 17 16 14 12 10 10 11 10 8 7 8 8 8 8 7 6 5 3 2
66 63 63 64 65 64 62 60 58 56 54 52 49 47 44 39 38 35 32 30 27 25 24 24 21 19 16 15 13 11 11 11 10 8 10 13 12 11 10 8 8 4 3
65 63 62 65 65 66 63 61 59 58 56 53 50 48 45 41 39 37 34 33 30 28 27 27 25 21 20 18 16 12 12 12 13 11 12 13 13 13 12 11 9 7 4
63 61 61 64 66 67 65 63 60 58 57 55 52 49 46 43 42 40 37 35 32 31 30 28 28 24 22 20 18 16 13 12 17 15 14 14 15 16 14 14 12 9 5
68 65 63 63 66 67 67 65 62 59 56 54 52 50 47 46 44 42 39 37 36 34 33 31 31 27 24 23 21 19 16 14 18 19 17 16 16 17 17 16 15 11 9
66 68 63 62 64 67 67 66 64 62 59 56 54 52 50 48 47 45 42 40 39 38 37 34 32 30 27 26 24 24 21 15 16 22 20 19 17 16 19 18 17 15 13
55 66 66 63 64 66 67 67 65 63 61 60 57 55 53 52 50 47 45 44 43 42 40 38 38 36 32 31 29 27 23 20 18 20 23 22 19 18 20 21 21 18 16
54 57 65 64 62 64 65 66 66 64 62 61 59 58 56 55 53 51 49 48 47 45 43 42 41 40 36 34 31 27 26 24 21 20 23 25 23 24 27 24 24 23 21
57 54 61 63 62 62 62 63 63 62 61 61 61 60 59 57 55 52 52 50 48 46 44 44 41 40 37 34 32 29 28 28 26 23 21 24 28 29 29 27 27 27 23
62 54 61 61 58 57 59 59 58 57 57 58 59 59 58 56 53 51 50 49 47 47 46 46 42 41 36 34 33 32 30 30 28 25 22 23 27 31 30 29 29 29 27
62 57 58 60 59 58 56 55 56 57 57 58 60 60 58 57 55 54 53 51 51 50 50 47 47 42 38 38 37 35 32 31 30 28 24 23 24 27 31 32 29 29 29
54 60 62 59 58 58 56 59 56 55 57 59 59 59 59 60 59 60 60 59 58 56 54 52 49 44 43 42 42 38 35 34 35 32 29 28 24 24 26 32 33 29 28
48 50 55 55 57 61 60 60 60 59 57 56 57 58 58 58 59 59 59 58 56 54 53 51 48 46 45 44 42 41 38 37 37 34 33 33 30 26 25 27 30 33 31
52 49 48 49 52 59 62 63 64 62 60 60 59 58 57 56 55 54 54 52 51 50 48 47 46 44 44 41 43 44 41 37 39 36 35 34 33 33 30 29 28 30 33
49 54 53 52 52 56 58 64 62 66 63 60 60 59 58 56 55 53 52 51 47 45 46 46 44 44 44 46 44 42 44 42 40 37 35 35 36 35 36 35 33 31 31
34 45 53 56 55 48 49 47 53 61 62 68 64 61 58 56 56 54 53 51 50 49 47 45 45 46 48 46 46 48 46 45 43 41 39 40 41 39 38 39 37 36 36
38 38 44 52 50 53 55 54 55 50 51 51 47 57 65 67 65 59 52 47 45 46 50 50 49 51 51 50 50 49 48 46 47 45 42 44 45 44 43 43 40 39 39
34 34 42 43 48 51 47 48 52 56 57 58 56 54 55 55 54 54 56 61 61 56 54 51 56 57 56 53 54 51 47 50 50 48 47 47 47 45 46 43 44 46 43
46 38 41 40 42 44 48 49 47 48 48 47 47 47 46 45 46 52 54 51 52 51 49 49 44 42 45 47 47 49 51 52 51 50 50 51 50 48 48 46 46 44 44
48 47 47 48 43 41 45 48 50 48 47 47 47 46 44 43 42 43 46 49 48 47 46 47 47 48 50 53 54 53 52 51 51 52 53 51 50 49 49 48 47 46 45
52 50 53 51 52 50 46 45 47 48 50 49 47 48 49 49 47 46 46 46 46 48 49 51 51 55 56 55 54 53 52 51 51 52 52 50 49 49 48 48 45 44 46
Wind_Direction
216 213 215 216 216 218 218 216 218 220 222 222 226 230 232 235 237 242 247 253 260 273 277 280 275 272 276 293 289 286 288 290 284 280 287 277 268 305 335 345 10 13 5
218 213 213 213 215 217 217 217 219 220 222 222 226 229 231 234 234 236 240 246 249 263 271 274 270 268 265 280 285 289 300 299 310 285 264 255 254 300 338 57 14 17 353
215 216 212 212 214 217 217 216 218 221 222 222 225 229 232 232 231 230 234 240 244 251 259 266 266 263 259 271 282 292 286 301 274 45 245 241 288 289 155 103 50 12 1
216 216 215 212 213 216 217 217 217 219 221 221 225 226 229 230 229 225 232 234 242 244 250 256 258 257 252 263 279 294 267 244 289 261 255 251 217 156 150 151 93 357 349
214 212 213 213 214 214 217 218 218 218 220 221 224 224 226 228 223 225 229 233 236 239 248 251 251 251 246 252 263 286 273 256 247 267 247 224 183 173 187 204 218 280 303
215 209 210 212 214 215 215 218 219 219 219 220 223 224 225 225 222 224 228 233 236 235 243 248 248 248 245 244 250 276 267 255 242 247 241 221 204 209 220 214 190 173 236
214 210 208 211 213 215 214 216 219 220 221 222 222 223 224 222 221 222 227 232 234 235 240 249 246 245 243 241 244 260 272 255 243 233 238 232 226 224 224 221 214 169 148
209 210 209 209 212 214 214 215 217 220 220 221 222 223 223 220 221 224 227 232 233 234 236 244 247 246 242 240 240 247 270 251 239 231 233 234 238 229 227 221 215 201 184
209 211 211 210 210 214 214 214 216 218 220 221 220 220 221 220 222 225 227 231 234 233 235 240 245 244 243 241 236 238 255 254 239 231 223 228 232 234 232 229 229 225 208
211 212 211 210 210 212 214 215 216 216 217 218 220 220 220 221 222 225 227 230 232 232 233 237 243 244 244 241 235 234 241 253 242 237 230 219 227 238 245 236 232 235 229
209 209 210 210 211 212 213 215 216 216 216 217 218 220 221 224 226 228 228 229 230 231 232 234 239 242 240 239 234 234 235 246 250 244 236 232 231 239 251 241 234 235 230
207 207 208 210 211 213 213 215 216 217 217 217 219 221 223 225 227 229 230 230 230 229 229 232 235 238 238 238 236 234 236 237 251 249 242 240 239 241 246 235 238 239 239
207 206 209 210 210 213 214 215 217 218 219 220 221 222 224 227 228 229 229 230 230 228 228 231 234 237 238 240 241 238 235 236 242 254 247 242 242 244 245 236 241 242 244
209 211 209 211 212 213 215 216 217 218 219 220 222 224 225 226 227 229 230 230 231 230 230 233 235 240 242 241 241 238 234 235 235 248 252 245 246 249 250 251 249 249 245
208 210 207 208 210 211 213 216 216 217 217 219 221 223 225 226 226 227 227 229 230 230 231 234 236 241 240 242 240 239 237 238 238 238 250 248 250 257 258 254 253 252 255
205 208 208 208 210 212 212 213 215 214 214 216 217 218 221 223 224 224 226 227 229 229 230 231 234 236 235 235 235 235 235 236 236 239 246 250 256 257 264 264 262 265 261
205 211 212 213 212 208 212 214 214 214 216 217 217 219 221 221 221 223 225 226 227 229 229 231 233 233 232 232 233 233 233 236 238 238 243 249 255 260 262 265 273 274 271
203 207 211 213 214 216 211 211 215 215 217 220 221 221 222 224 226 227 228 229 231 232 233 233 234 235 235 234 234 234 233 240 243 239 242 247 251 259 264 268 270 275 279
213 209 210 212 212 215 216 215 210 214 216 217 218 220 223 225 226 229 232 234 235 236 237 238 238 237 238 235 242 236 237 243 243 239 244 248 252 254 260 265 270 274 280
205 206 206 206 209 216 218 220 215 211 211 216 219 220 222 224 225 228 231 233 234 235 236 236 235 234 235 236 233 236 241 239 242 240 246 249 251 253 256 260 266 270 274
209 213 203 209 207 213 220 224 224 214 213 216 212 215 217 219 222 224 225 227 227 227 226 227 228 231 233 229 235 239 236 238 239 237 243 247 252 254 256 259 264 269 274
203 204 215 210 207 209 210 211 215 221 213 210 209 226 224 223 223 222 220 220 223 227 227 225 225 224 224 230 231 229 232 236 236 236 242 246 249 253 256 259 265 270 273
203 203 199 205 212 212 211 214 215 214 213 214 213 222 226 228 229 230 231 231 227 219 220 220 222 226 228 226 230 232 233 238 236 236 242 246 250 252 254 262 263 265 268
226 216 201 197 194 199 208 213 213 215 217 219 219 217 216 216 222 226 223 222 224 224 223 223 225 228 232 232 233 235 237 238 238 238 242 246 249 252 255 259 263 269 269
232 234 225 206 202 200 202 204 206 209 215 216 216 218 219 222 222 224 227 226 225 225 224 224 225 227 230 232 234 235 234 236 237 239 244 247 249 252 256 259 262 267 271
226 232 233 231 229 224 219 207 206 207 208 210 213 218 220 221 222 225 225 226 226 226 225 226 227 227 228 230 233 234 235 236 239 244 246 247 251 254 257 261 264 268 271
Height
5651 5662 5673 5683 5691 5698 5707 5715 5722 5728 5735 5742 5747 5751 5755 5758 5761 5764 5766 5768 5768 5769 5769 5769 5769 5769 5768 5767 5768 5768 5767 5765 5764 5762 5762 5761 5762 5762 5761 5760 5758 5756 5755
5640 5648 5661 5670 5679 5688 5697 5705 5712 5719 5726 5733 5739 5743 5748 5753 5756 5759 5761 5763 5764 5766 5766 5766 5766 5766 5766 5765 5766 5766 5765 5763 5761 5761 5761 5761 5761 5760 5759 5758 5757 5756 5754
5627 5637 5647 5659 5669 5679 5687 5695 5702 5709 5717 5725 5730 5736 5741 5746 5750 5753 5755 5758 5760 5761 5762 5763 5763 5763 5764 5763 5764 5764 5763 5761 5761 5759 5759 5760 5760 5759 5758 5758 5756 5755 5754
5617 5627 5637 5648 5659 5667 5676 5684 5692 5700 5707 5716 5722 5728 5733 5738 5743 5746 5749 5752 5755 5756 5758 5758 5759 5760 5761 5761 5761 5762 5762 5760 5759 5759 5759 5759 5758 5758 5758 5757 5756 5755 5753
5603 5614 5626 5636 5645 5654 5664 5674 5682 5690 5698 5706 5712 5719 5725 5730 5736 5740 5743 5746 5749 5751 5753 5754 5755 5756 5757 5758 5759 5759 5759 5758 5758 5758 5758 5758 5758 5758 5757 5756 5756 5753 5751
5591 5601 5612 5622 5632 5644 5654 5663 5672 5680 5688 5696 5704 5711 5717 5723 5728 5732 5736 5739 5743 5745 5747 5749 5751 5752 5753 5755 5755 5756 5758 5758 5756 5756 5757 5757 5757 5757 5756 5756 5754 5752 5750
5579 5589 5600 5610 5621 5633 5642 5652 5662 5671 5679 5687 5694 5701 5708 5715 5720 5724 5728 5732 5736 5739 5741 5744 5746 5748 5749 5751 5752 5753 5754 5755 5755 5754 5755 5756 5756 5756 5755 5754 5753 5751 5748
5570 5580 5590 5598 5609 5619 5630 5641 5650 5660 5669 5678 5686 5693 5699 5706 5711 5716 5720 5724 5728 5732 5735 5738 5741 5743 5745 5746 5748 5749 5751 5751 5752 5752 5752 5753 5754 5754 5753 5752 5750 5749 5747
5561 5571 5580 5589 5596 5606 5619 5629 5639 5649 5658 5667 5675 5683 5690 5697 5702 5707 5712 5717 5721 5725 5728 5732 5735 5737 5740 5742 5744 5745 5747 5748 5749 5749 5748 5749 5750 5751 5750 5749 5748 5746 5745
5549 5560 5568 5577 5586 5595 5607 5618 5628 5638 5648 5657 5666 5673 5681 5686 5693 5698 5704 5709 5713 5717 5721 5725 5728 5731 5734 5737 5739 5741 5743 5744 5745 5746 5746 5744 5745 5747 5747 5745 5744 5743 5743
5535 5547 5557 5568 5577 5585 5595 5606 5617 5627 5637 5646 5655 5663 5670 5677 5683 5688 5694 5700 5704 5709 5713 5717 5721 5724 5727 5730 5733 5735 5737 5739 5740 5741 5742 5742 5740 5741 5742 5742 5742 5741 5739
5524 5535 5547 5557 5566 5575 5585 5595 5606 5616 5626 5635 5643 5651 5659 5665 5672 5679 5685 5690 5694 5699 5705 5709 5713 5716 5719 5723 5726 5728 5732 5733 5735 5735 5736 5737 5737 5737 5736 5736 5737 5737 5736
5516 5525 5536 5546 5555 5565 5575 5585 5595 5605 5615 5624 5633 5641 5648 5655 5662 5668 5674 5679 5684 5690 5695 5699 5703 5707 5710 5714 5718 5722 5725 5727 5729 5730 5730 5731 5732 5732 5730 5730 5731 5731 5732
5506 5515 5526 5537 5546 5556 5566 5575 5584 5594 5604 5614 5622 5630 5637 5644 5651 5658 5663 5669 5675 5681 5685 5691 5695 5700 5704 5708 5711 5715 5718 5720 5723 5724 5725 5726 5726 5726 5725 5726 5726 5726 5726
5496 5506 5516 5527 5537 5546 5555 5565 5575 5584 5594 5604 5612 5620 5627 5635 5643 5649 5655 5662 5668 5672 5676 5681 5687 5692 5697 5701 5704 5708 5711 5713 5717 5718 5720 5720 5720 5720 5720 5720 5720 5720 5720
5486 5497 5506 5516 5527 5536 5545 5555 5563 5572 5581 5589 5597 5606 5614 5622 5628 5636 5643 5649 5655 5659 5664 5671 5676 5682 5688 5691 5694 5699 5703 5706 5709 5711 5713 5714 5714 5714 5715 5715 5715 5715 5714
5478 5488 5498 5507 5515 5524 5535 5544 5553 5562 5570 5578 5586 5594 5601 5609 5615 5622 5628 5634 5640 5645 5653 5660 5666 5672 5677 5681 5685 5690 5694 5697 5700 5704 5706 5707 5707 5707 5707 5708 5709 5708 5708
5470 5479 5487 5496 5505 5513 5523 5532 5542 5551 5561 5569 5577 5584 5591 5598 5604 5611 5617 5623 5630 5637 5645 5651 5658 5663 5668 5671 5676 5681 5684 5688 5692 5696 5698 5699 5700 5701 5700 5700 5701 5702 5702
5463 5470 5478 5487 5495 5503 5512 5521 5529 5539 5547 5556 5563 5572 5580 5587 5595 5602 5609 5616 5624 5631 5638 5643 5649 5654 5659 5663 5667 5670 5675 5679 5683 5687 5689 5691 5692 5693 5694 5693 5694 5694 5695
5456 5462 5470 5479 5486 5493 5502 5510 5518 5525 5535 5545 5553 5560 5567 5576 5583 5592 5599 5606 5614 5621 5626 5632 5637 5641 5647 5651 5655 5659 5664 5669 5674 5677 5680 5681 5682 5684 5685 5686 5686 5687 5687
5450 5456 5461 5470 5478 5486 5493 5500 5506 5513 5522 5531 5538 5546 5554 5562 5569 5577 5584 5591 5598 5604 5611 5618 5623 5628 5634 5638 5643 5648 5653 5658 5662 5666 5668 5670 5672 5674 5675 5676 5678 5679 5679
5443 5449 5455 5461 5467 5475 5483 5491 5499 5506 5513 5522 5528 5534 5542 5548 5556 5563 5571 5578 5585 5591 5597 5602 5607 5613 5619 5624 5629 5635 5640 5645 5650 5654 5655 5658 5660 5663 5665 5667 5668 5669 5669
5435 5443 5449 5454 5460 5466 5473 5480 5488 5495 5503 5510 5518 5525 5533 5539 5545 5551 5558 5564 5569 5576 5582 5589 5595 5601 5607 5612 5618 5624 5629 5634 5637 5640 5644 5647 5649 5652 5654 5655 5657 5657 5658
5424 5434 5440 5446 5452 5459 5465 5472 5479 5485 5491 5498 5505 5511 5518 5525 5531 5538 5544 5550 5557 5564 5570 5577 5584 5590 5596 5602 5607 5612 5617 5621 5625 5628 5631 5634 5637 5639 5641 5644 5644 5645 5645
5414 5422 5431 5437 5444 5451 5457 5464 5470 5477 5483 5489 5495 5502 5507 5513 5520 5527 5534 5540 5547 5553 5559 5565 5571 5577 5583 5589 5594 5599 5603 5608 5611 5614 5619 5622 5624 5626 5628 5631 5633 5633 5633
5402 5410 5418 5424 5431 5439 5447 5454 5461 5468 5474 5481 5488 5494 5500 5505 5511 5517 5523 5529 5535 5541 5547 5554 5560 5565 5570 5575 5580 5585 5590 5594 5599 5602 5605 5609 5612 5614 5616 5618 5619 5619 5620